Location: ????????
(56.0667°N, 38.3000°E)
Time: 04:38:15
(UTC+00:00)

Daily predictions for brighter satellites

Satellite Brightness Start Highest point End
(mag) Time Altitude Azimuth Time Altitude Azimuth Time Altitude Azimuth
ATLAS 3B R/B 3.9 00:39:56 43° NNE 00:39:56 43° NNE 00:45:43 10° ENE
Cosmos 2360 Rocket 4.2 00:45:55 23° NE 00:45:55 23° NE 00:48:59 10° E
Cosmos 2333 Rocket 4.1 00:46:55 26° ENE 00:46:55 26° ENE 00:50:07 10° E
ACS3 Solar Sail 3.8 00:43:06 10° NNE 00:44:40 19° NNE 00:44:40 19° NNE
ADEOS Rocket 4.1 00:48:01 10° NNE 00:53:31 52° NNE 00:53:31 52° NNE
Cosmos 2219 Rocket 4.1 01:02:24 24° NE 01:02:24 24° NE 01:06:21 10° E
Cosmos 2322 Rocket 3.7 01:08:47 32° NE 01:08:47 32° NE 01:13:05 10° E
NOSS 3-1 (A) 4.0 01:22:28 68° NE 01:22:28 68° NE 01:30:08 10° ESE
Cosmos 1833 Rocket 4.0 01:31:47 32° NNE 01:31:47 32° NNE 01:34:46 10° NNE
SL-16 R/B 2.9 01:37:18 51° E 01:37:18 51° E 01:41:52 10° SE
COSMOS 2428 4.5 01:37:20 22° NNE 01:37:56 22° NNE 01:42:22 10° ENE
USA 234 3.2 01:34:57 10° ENE 01:41:16 83° ENE 01:41:16 83° ENE
Cosmos 2082 Rocket 3.1 01:41:15 41° SE 01:42:03 43° ESE 01:47:20 10° NE
USA 229 4.2 01:45:16 48° N 01:45:53 49° N 01:53:17 10° E
USA 229 DEB 4.2 01:45:21 48° N 01:45:59 49° N 01:53:22 10° E
ATLAS 5 CENTAUR R/B 4.1 01:51:42 12° NE 01:51:42 12° NE 01:52:03 10° NE
SeaSat 1 3.6 01:45:18 10° NE 01:48:14 37° NE 01:48:14 37° NE
ADEOS II 4.5 01:47:57 10° N 01:48:21 12° N 01:48:21 12° N
CZ-2C R/B 3.8 01:52:03 10° NNE 01:54:51 33° NNE 01:54:51 33° NNE
Cosmos 2278 3.8 02:00:27 73° ENE 02:00:27 73° ENE 02:05:59 10° SE
NOSS 3-1 (C) 3.9 02:05:08 61° SW 02:05:08 61° SW 02:13:22 10° SSE
Timation 1 Rocket 4.2 02:12:54 73° SSW 02:13:29 85° SE 02:19:30 10° NE
SL-16 R/B 4.0 02:14:24 18° N 02:14:44 18° N 02:18:33 10° NE
SL-4 R/B 4.1 02:21:07 17° SE 02:21:07 17° SE 02:22:03 10° ESE
ARGOS 4.1 02:13:43 10° NNE 02:16:55 35° N 02:16:55 35° N
COSMOS 2455 4.1 02:23:49 26° SSW 02:23:49 26° SSW 02:26:43 10° S
Cosmos 841 Rocket 4.0 02:20:17 22° S 02:23:34 59° ESE 02:28:45 10° NNE
SJ-11-01 4.5 02:20:32 10° NNE 02:25:15 69° ESE 02:28:43 18° S
Cosmos 2360 Rocket 2.3 02:27:40 49° NNW 02:29:12 73° NE 02:34:50 10° SE
Cosmos 2333 Rocket 2.1 02:28:57 64° NW 02:29:55 86° WSW 02:35:41 10° SSE
ATLAS 3B R/B 3.4 02:27:10 37° NW 02:30:14 56° NNE 02:37:50 10° E
ACS3 Solar Sail 3.4 02:26:32 10° N 02:28:40 19° NNW 02:28:40 19° NNW
Meteor 2-2 Rocket 4.4 02:30:59 18° N 02:35:18 72° ENE 02:41:04 10° SSE
Nadezhda 4 Rocket 3.9 02:29:40 10° S 02:35:59 88° W 02:42:18 10° NNE
NOSS 3-4 (A) 3.4 02:35:38 53° NW 02:36:08 54° NNW 02:42:28 10° ENE
NOSS 3-4 (C) 3.4 02:35:47 53° NW 02:36:18 54° NNW 02:42:37 10° ENE
H-2A R/B 4.3 02:33:22 10° N 02:33:38 11° N 02:33:38 11° N
Cosmos 2237 Rocket 3.9 02:36:30 18° N 02:38:54 24° NNE 02:43:23 10° ENE
ADEOS Rocket 4.1 02:33:52 10° N 02:40:26 36° NW 02:40:26 36° NW
DNEPR-1 R/B 4.3 02:45:38 39° N 02:45:38 39° N 02:48:56 10° NE
Cosmos 2219 Rocket 2.5 02:44:07 32° NNW 02:46:45 64° NE 02:52:22 10° SE
Cosmos 1892 Rocket 3.7 02:43:54 10° S 02:48:15 71° E 02:52:40 10° NNE
Cosmos-2242 2.9 02:47:42 53° N 02:48:40 80° ENE 02:52:52 10° SSE
Meteor 2-20 4.3 02:43:03 10° NNW 02:49:08 79° W 02:55:13 10° S
IRS-1D 3.5 02:46:08 10° NNE 02:51:10 80° ESE 02:56:14 10° SSW
Cosmos 2322 Rocket 2.1 02:50:37 43° NW 02:52:33 79° WSW 02:58:14 10° SSE
Cosmos 468 Rocket 4.0 02:53:42 54° WNW 02:53:57 54° NW 02:59:04 10° NNE
Cosmos 220 Rocket 3.8 02:53:36 58° SSW 02:54:23 86° ESE 02:58:33 10° NNE
COSMO-SKYMED 1 2.4 02:52:36 10° S 02:56:20 62° SW 02:56:20 62° SW
Cosmos 1763 Rocket 4.3 03:02:15 32° NNW 03:02:15 32° NNW 03:06:16 10° NNE
RESURS DK-1 4.0 03:10:24 20° N 03:10:24 20° N 03:12:27 10° NNE
Cosmos 2333 4.1 03:07:20 31° NW 03:10:15 80° WSW 03:15:57 10° SSE
Meteor 1-26 Rocket 4.1 03:06:52 19° NNW 03:10:51 67° W 03:16:27 10° S
Meteor 2-20 Rocket 4.2 03:05:09 10° NNW 03:10:57 76° W 03:16:39 10° S
NOSS 3-1 (A) 4.2 03:09:52 33° WNW 03:12:57 53° SW 03:21:12 10° SSE
Cosmos 1833 Rocket 3.7 03:13:28 27° NW 03:13:52 27° NNW 03:18:41 10° NNE
Meteor 2-3 Rocket 3.6 03:08:23 10° SSW 03:14:06 74° WNW 03:19:48 10° NNE
IGS 5A 4.4 03:10:51 10° NNE 03:14:44 47° E 03:18:36 10° S
Cosmos 2058 Rocket 3.1 03:17:29 37° NW 03:18:52 53° W 03:23:08 10° S
Cosmos 1484 Rocket 3.1 03:16:36 10° NNE 03:20:00 57° ESE 03:23:20 10° S
SL-16 R/B 2.8 03:19:10 33° W 03:20:07 36° WSW 03:25:13 10° S
COSMOS 2406 3.1 03:14:31 10° SW 03:20:12 81° NW 03:25:56 10° NE
Cosmos 1437 Rocket 3.6 03:20:38 15° N 03:23:16 42° ENE 03:26:35 10° SE
COSMOS 2428 3.4 03:19:18 18° NNW 03:23:29 52° NE 03:29:02 10° ESE
USA 234 3.2 03:18:02 10° E 03:24:38 85° N 03:28:36 26° WNW
CZ-4 R/B 3.7 03:21:22 10° NNE 03:25:59 63° WNW 03:30:32 10° SSW
Cosmos 2082 Rocket 2.3 03:23:08 26° WSW 03:26:05 51° NW 03:31:36 10° NNE
Cosmos 1627 Rocket 4.3 03:20:22 10° SSW 03:26:28 73° WNW 03:32:40 10° N
SeaSat 1 3.3 03:23:01 10° NNE 03:27:15 30° NW 03:27:52 29° NW
Cosmos 540 Rocket 4.4 03:29:23 26° NW 03:29:32 26° NW 03:33:52 10° NNE
ATLAS 5 CENTAUR R/B 2.0 03:31:10 28° NNW 03:31:23 29° N 03:34:46 10° NE
IRIDIUM 104 4.4 03:27:37 10° S 03:32:50 79° E 03:38:05 10° N
NOAA 12 4.1 03:29:07 10° N 03:34:20 58° WNW 03:39:29 10° SW
CZ-2C R/B 3.7 03:30:43 10° N 03:34:03 23° NW 03:34:03 23° NW
Cosmos 1743 3.6 03:32:53 10° SSE 03:35:58 42° E 03:39:05 10° NNE
Cosmos 2285 Rocket 4.1 03:32:11 18° NW 03:37:00 61° WSW 03:43:17 10° S
Okean 1 3.5 03:37:08 37° W 03:37:08 37° W 03:40:25 10° SSW
USA 229 4.0 03:32:41 22° NW 03:37:40 80° NE 03:45:40 10° ESE
USA 229 DEB 4.0 03:32:47 22° NW 03:37:45 81° NE 03:45:44 10° ESE
Cosmos 1814 Rocket 4.5 03:33:27 10° SSW 03:38:38 64° ESE 03:43:55 10° NNE
CBERS-1 4.4 03:33:56 10° NNE 03:39:03 68° ESE 03:44:07 10° S
IRIDIUM 114 4.3 03:36:44 10° S 03:41:58 89° W 03:47:14 10° N
Helios 1A Rocket 4.4 03:41:20 10° SSW 03:42:22 16° SW 03:42:22 16° SW
IRIDIUM 103 4.2 03:45:55 10° S 03:51:08 78° W 03:56:25 10° N
Cosmos 2026 Rocket 4.1 03:46:01 10° SW 03:51:54 50° WNW 03:57:52 10° N
Cosmos 2315 Rocket 4.4 03:46:04 10° N 03:52:26 69° ENE 03:58:45 10° SSE
SL-4 R/B 3.4 03:54:50 15° SW 03:56:04 18° SSW 03:58:20 10° SSE
Thor Agena Rocket 3.9 03:51:57 10° NNE 03:57:02 67° ESE 04:02:02 10° S
Cosmos 2151 3.4 03:53:22 10° S 03:57:24 63° E 04:01:29 10° NNE
Cosmos 2221 2.3 03:53:16 10° NNW 03:57:24 70° W 04:01:31 10° S
Cosmos 1758 Rocket 3.5 03:53:54 10° SSW 03:58:19 84° W 04:02:44 10° NNE
CZ-2D R/B 3.6 03:57:11 10° NNE 04:00:18 51° E 04:03:24 10° S
SL-16 R/B 3.7 03:56:15 11° NNW 04:00:49 26° NNE 04:05:32 10° E
Meteor 2-4 Rocket 4.5 03:57:34 10° N 04:02:50 51° ENE 04:08:09 10° SE
Cosmos 1238 Rocket 2.4 04:02:18 10° N 04:05:11 60° ENE 04:07:59 10° SSE
Cosmos 841 Rocket 4.1 04:00:52 10° WSW 04:05:40 35° NW 04:10:30 10° NNE
IRIDIUM 106 4.4 04:04:23 10° SSW 04:09:32 58° W 04:14:43 10° N
S3M 3.9 04:03:28 10° NNW 04:09:42 80° W 04:15:50 10° S
Cosmos 1553 Rocket 4.4 04:05:08 10° NNW 04:11:09 45° W 04:17:09 10° SSW
Cosmos 158 Rocket 4.0 04:05:52 10° SSW 04:11:12 90° E 04:16:26 10° NNE
Cosmos 1980 4.3 04:05:57 10° NNW 04:11:28 54° NE 04:17:02 10° SE
Cosmos 1707 2.1 04:09:02 12° NNW 04:11:57 64° W 04:15:03 10° S
Cosmos 405 Rocket 2.4 04:09:09 10° SSW 04:12:21 51° WNW 04:15:35 10° N
Cosmos 2360 Rocket 3.1 04:09:27 16° WNW 04:12:45 28° WSW 04:17:28 10° SSW
Cosmos 2333 Rocket 3.5 04:11:00 16° WNW 04:13:28 21° WSW 04:17:39 10° SSW
KORONAS-FOTON 3.5 04:15:12 10° NNW 04:18:32 55° W 04:21:50 10° S
Cosmos 1092 Rocket 4.4 04:13:00 10° SW 04:18:51 40° WNW 04:24:41 10° N
SMAP 3.0 04:14:44 10° NNE 04:19:26 83° WNW 04:24:06 10° SSW
Cosmos 1833 4.4 04:15:12 10° SSW 04:20:52 81° ESE 04:26:37 10° NE
Cosmos 1626 Rocket 3.8 04:17:11 10° SSW 04:21:27 47° WNW 04:25:43 10° N
ATLAS 3B R/B 3.1 04:14:24 13° NW 04:21:34 79° SW 04:29:09 10° SE
Cosmos 2237 Rocket 2.7 04:18:31 10° NNW 04:24:06 59° NE 04:29:40 10° SE
Cosmos 2298 Rocket 4.1 04:18:50 10° NNW 04:24:12 81° ENE 04:29:31 10° SSE
Landsat 7 3.8 04:20:03 10° NNE 04:24:45 88° WNW 04:29:25 10° SSW
Resurs 01 Rocket 4.4 04:21:57 10° NE 04:25:03 19° E 04:28:08 10° SE
SL-08 R/B 3.3 04:21:15 10° SSE 04:25:53 88° WSW 04:30:38 10° NNW
Meteor 1-10 Rocket 4.4 04:20:20 10° NNW 04:26:09 61° W 04:31:58 10° S
Cosmos 1125 Rocket 3.9 04:21:29 11° NW 04:26:23 45° WSW 04:31:21 10° S
NOSS 3-4 (A) 4.1 04:23:03 13° WNW 04:28:03 44° N 04:34:39 10° ENE
NOSS 3-4 (C) 4.1 04:23:12 13° WNW 04:28:12 44° N 04:34:48 10° ENE
Cosmos 1842 2.9 04:26:15 10° NNW 04:29:33 59° W 04:32:49 10° S
IRS-1D 4.5 04:25:55 10° N 04:29:51 24° NW 04:33:48 10° WSW
Cosmos 2219 Rocket 3.0 04:25:50 12° NW 04:30:24 33° WSW 04:35:22 10° S
Meteor 1-19 Rocket 4.5 04:26:02 10° NNW 04:31:37 52° W 04:37:19 10° S
NOSS 0 Rocket 4.0 04:26:05 10° NW 04:32:20 85° SW 04:38:34 10° SSE
COSMO-SKYMED 1 4.5 04:32:17 10° W 04:32:40 10° W 04:32:40 10° W
NOSS 5 (C) 4.4 04:31:13 13° NW 04:34:26 85° NE 04:37:44 10° SE
Cosmos 2322 Rocket 3.6 04:32:25 12° WNW 04:35:44 19° W 04:39:33 10° SW
Cosmos 1842 Rocket 3.8 04:33:06 10° N 04:37:25 72° ENE 04:41:43 10° SSE
Cosmos 2322 4.0 04:40:03 10° NW 04:45:33 53° WSW 04:51:02 10° S
RESURS DK-1 4.4 04:46:15 10° NW 04:47:56 12° N 04:49:37 10° NNE
IGS 5A 4.3 04:46:02 10° N 04:49:24 26° WNW 04:52:44 10° WSW
Cosmos 2266 Rocket 4.1 04:43:49 10° SSW 04:50:08 63° WNW 04:56:24 10° N
Okean 1-7 Rocket 3.6 04:46:23 10° SSW 04:50:50 60° WNW 04:55:16 10° N
ATLAS 2AS CENTAUR R/B 3.2 04:43:55 10° SW 04:50:51 68° SE 04:57:39 10° NE
YAOGAN 11 4.3 04:47:02 10° S 04:51:17 53° WSW 04:55:31 10° NNW
Cosmos 1484 Rocket 3.9 04:50:11 10° NNW 04:52:33 18° WNW 04:54:53 10° WSW
CZ-4 R/B 4.4 04:48:57 10° NNE 04:52:57 88° ESE 04:56:55 10° SSW
SJ-12 3.9 04:51:19 10° N 04:55:01 49° WNW 04:58:42 10° SW
Cosmos 1818 3.7 04:52:19 10° NW 04:57:48 85° NE 05:03:16 10° SE
Cosmos 1437 Rocket 3.9 04:55:21 10° NW 04:57:55 20° W 05:00:27 10° SW
ARIANE 5 R/B 2.6 04:53:21 10° NNE 04:58:30 63° WNW 05:03:39 10° SSW
Cosmos 1833 Rocket 4.3 04:55:55 10° NW 04:59:43 18° N 05:03:31 10° NE
Cosmos 1602 Rocket 4.1 04:55:52 10° SW 05:00:01 38° WNW 05:04:12 10° N
Cosmos 1805 4.1 04:59:08 10° S 05:02:21 45° E 05:05:36 10° NNE
IRS-P3 4.1 04:57:52 10° NNE 05:03:13 80° WNW 05:08:31 10° SSW
SeaSat 1 4.2 05:00:41 10° NNE 05:03:29 15° NNW 05:06:15 10° NW
COSMOS 2406 4.1 05:00:26 10° W 05:05:19 28° NNW 05:10:14 10° NNE
COSMOS 2428 3.3 05:02:20 10° NW 05:07:42 43° WSW 05:13:03 10° S
USA 234 3.6 05:01:21 10° SE 05:07:53 66° SSW 05:14:26 10° WNW
